Location: Columbus
(35.2256°N, 82.1549°W)
Time: 23:50:41
(UTC-05:00)

Envisat - Pass Details

Date: 02 December 2021
Orbit: 764 x 766 km, 98.2° (Epoch: 25 January)

Event Time Altitude Azimuth Distance (km) Brightness Sun altitude
Rises 18:01:23 0° 213° (SSW) 3,216 7.2 -9.3°
Reaches altitude 10° 18:04:55 10° 239° (WSW) 2,296 7.0 -9.9°
Maximum altitude 18:07:22 14° 268° (W) 2,061 6.5 -10.4°
Drops below altitude 10° 18:09:50 10° 298° (WNW) 2,304 6.1 -10.9°
Sets 18:13:25 0° 324° (NW) 3,235 6.5 -11.6°
